DW5321 Paradera AW current weather conditions

sailwx.info

Wind from 085 at 7 knots gusting 13

Air temperature 26.1° C
Dewpoint 24.1° C

Last reported at 2015-Apr-18 06:35 UTC.
Time now 2015-Apr-18 07:13 UTC

Location: N 12°33' W 070°00'.
View on Google Maps.

See reports from other nearby stations

  
Tides and Currents Weather Stations Pressure Air Temp Water Temp Dewpoint Dewpoint Depression Visibility Wind Speed Wind Dir Waves Ship Positions
date/time (UTC)wind fromknots sea level pressurealtimeterstation pressurevisibilityair tempwater tempwave heightnotes
2015-Apr-18 06:35 085 7 gusting 13 26.1
2015-Apr-18 06:21 106 6 gusting 13 26.1
2015-Apr-18 06:06 091 6 gusting 13 26.1
2015-Apr-18 05:51 090 6 gusting 12 26.1
2015-Apr-18 05:36 110 10 gusting 13 26.1
2015-Apr-18 05:21 123 6 gusting 12 26.1
2015-Apr-18 05:06 088 8 gusting 13 26.1
2015-Apr-18 04:51 096 6 gusting 13 26.1
2015-Apr-18 04:35 103 6 gusting 13 26.1
2015-Apr-18 04:20 130 8 gusting 14 26.1
2015-Apr-18 04:05 100 7 gusting 13 26.1
2015-Apr-18 03:50 110 6 gusting 13 26.7
2015-Apr-18 03:36 084 8 gusting 14 26.7
2015-Apr-18 03:20 098 6 gusting 13 26.7
2015-Apr-18 03:05 081 7 gusting 14 26.1
2015-Apr-18 02:50 063 6 gusting 13 26.1
2015-Apr-18 02:35 091 6 gusting 12 26.7
2015-Apr-18 02:20 071 5 gusting 12 26.7
2015-Apr-18 02:05 069 6 gusting 12 26.7
2015-Apr-18 01:50 076 6 gusting 11 26.7
2015-Apr-18 01:34 129 6 gusting 14 26.7
2015-Apr-18 01:20 107 5 gusting 13 26.7
2015-Apr-18 01:05 077 5 gusting 12 26.7
2015-Apr-18 00:50 077 6 gusting 12 26.7
2015-Apr-18 00:35 072 10 gusting 14 26.7
2015-Apr-18 00:20 041 7 gusting 13 26.7
2015-Apr-18 00:05 077 7 gusting 13 26.7
2015-Apr-17 23:50 090 6 gusting 13 26.7
2015-Apr-17 23:35 066 6 gusting 10 26.7
2015-Apr-17 23:20 078 6 gusting 12 26.7
2015-Apr-17 23:05 060 9 gusting 13 26.7
2015-Apr-17 22:50 075 6 gusting 16 26.7
2015-Apr-17 22:35 065 9 gusting 13 27.2
2015-Apr-17 22:20 096 8 gusting 13 27.2
2015-Apr-17 22:05 074 9 gusting 14 27.2
2015-Apr-17 21:50 083 6 gusting 17 27.8
2015-Apr-17 21:35 071 7 gusting 15 28.3
2015-Apr-17 21:20 034 8 gusting 14 28.3
2015-Apr-17 21:05 077 10 gusting 14 28.3
2015-Apr-17 20:50 072 7 gusting 14 28.3
2015-Apr-17 20:35 077 8 gusting 14 28.9
2015-Apr-17 20:20 124 9 gusting 17 28.9
2015-Apr-17 20:04 117 9 gusting 18 28.9
2015-Apr-17 19:50 117 7 gusting 17 28.9
2015-Apr-17 19:35 101 11 gusting 17 28.9
2015-Apr-17 19:20 082 11 gusting 19 28.9
2015-Apr-17 19:05 091 11 gusting 19 29.4
2015-Apr-17 18:50 089 10 gusting 18 29.4
2015-Apr-17 18:35 099 12 gusting 19 29.4
2015-Apr-17 18:20 092 10 gusting 17 29.4
2015-Apr-17 18:05 053 10 gusting 18 28.9
2015-Apr-17 17:50 072 10 gusting 14 28.9
2015-Apr-17 17:35 041 12 gusting 18 28.9
2015-Apr-17 17:20 094 10 gusting 19 28.9
2015-Apr-17 17:05 072 12 gusting 19 29.4
2015-Apr-17 16:49 103 12 gusting 18 29.4
2015-Apr-17 16:34 053 10 gusting 18 29.4
2015-Apr-17 16:19 076 11 gusting 17 29.4
2015-Apr-17 16:04 039 10 gusting 18 29.4
2015-Apr-17 15:49 057 9 gusting 17 30.0
2015-Apr-17 15:34 091 11 gusting 14 29.4
2015-Apr-17 15:19 113 11 gusting 23 28.9
2015-Apr-17 15:04 111 9 gusting 19 28.9
2015-Apr-17 14:49 111 15 gusting 20 28.3
2015-Apr-17 14:34 094 13 gusting 21 28.3
2015-Apr-17 14:19 079 14 gusting 22 28.3
2015-Apr-17 14:04 102 13 gusting 20 28.3
2015-Apr-17 13:49 053 10 gusting 16 28.3
2015-Apr-17 13:34 060 7 gusting 13 28.3
2015-Apr-17 13:19 073 11 gusting 18 27.8
2015-Apr-17 13:04 082 8 gusting 17 27.8
2015-Apr-17 12:49 086 8 gusting 17 27.2
2015-Apr-17 12:34 066 9 gusting 18 27.8
2015-Apr-17 12:18 074 7 gusting 13 27.2
2015-Apr-17 12:03 114 7 gusting 13 27.2
2015-Apr-17 11:48 068 7 gusting 16 26.7
2015-Apr-17 11:33 105 5 gusting 10 26.7
2015-Apr-17 11:18 086 5 gusting 13 26.1
2015-Apr-17 11:03 112 7 gusting 13 26.1
2015-Apr-17 10:48 094 6 gusting 14 26.1
2015-Apr-17 10:33 104 7 gusting 13 26.1
2015-Apr-17 10:18 086 4 gusting 7 26.1
2015-Apr-17 10:03 036 6 gusting 9 26.1
2015-Apr-17 09:48 089 7 gusting 15 26.1
2015-Apr-17 09:33 081 5 gusting 10 26.1
2015-Apr-17 09:18 091 6 gusting 11 26.1
2015-Apr-17 09:03 110 6 gusting 10 26.1
2015-Apr-17 08:48 094 7 gusting 13 26.1
2015-Apr-17 08:33 097 5 gusting 12 26.1
2015-Apr-17 08:18 084 6 gusting 12 26.1
2015-Apr-17 08:03 077 6 gusting 10 26.1
2015-Apr-17 07:48 086 6 gusting 12 26.1
2015-Apr-17 07:33 106 6 gusting 13 26.1
2015-Apr-17 07:18 091 5 gusting 11 26.1
2015-Apr-17 07:03 120 5 gusting 13 26.1
2015-Apr-17 06:48 088 5 gusting 10 26.1
2015-Apr-17 06:33 096 3 gusting 15 26.1
2015-Apr-17 06:18 086 6 gusting 13 26.1
2015-Apr-17 06:03 105 6 gusting 11 26.1
2015-Apr-17 05:48 078 6 gusting 12 26.1
2015-Apr-17 05:33 088 6 gusting 11 26.1
2015-Apr-17 05:18 077 8 gusting 15 26.1
2015-Apr-17 05:03 044 6 gusting 12 26.1
2015-Apr-17 04:48 099 7 gusting 14 26.1
2015-Apr-17 04:33 055 7 gusting 13 26.1
2015-Apr-17 04:18 079 5 gusting 12 26.7
2015-Apr-17 04:03 095 6 gusting 15 26.7
2015-Apr-17 03:48 080 6 gusting 15 26.7
2015-Apr-17 03:33 060 6 gusting 13 26.7
2015-Apr-17 03:18 078 8 gusting 15 26.7
2015-Apr-17 03:03 084 6 gusting 12 26.7
2015-Apr-17 02:48 058 9 gusting 15 26.7
2015-Apr-17 02:33 053 7 gusting 12 26.7
2015-Apr-17 02:18 088 7 gusting 13 26.7
2015-Apr-17 02:02 083 8 gusting 13 26.7
2015-Apr-17 01:47 091 6 gusting 13 26.7
2015-Apr-17 01:32 079 7 gusting 14 26.7
2015-Apr-17 01:17 051 6 gusting 11 26.7
2015-Apr-17 01:02 066 6 gusting 13 26.7
2015-Apr-17 00:47 060 6 gusting 12 26.7
2015-Apr-17 00:32 294 6 gusting 14 26.7
2015-Apr-17 00:17 082 6 gusting 13 26.7
2015-Apr-17 00:02 084 8 gusting 13 26.7
2015-Apr-16 23:47 070 10 gusting 13 26.7
2015-Apr-16 23:32 091 7 gusting 14 26.7
2015-Apr-16 23:17 057 6 gusting 13 26.7
2015-Apr-16 23:02 068 7 gusting 13 26.7
2015-Apr-16 22:47 086 7 gusting 18 27.2
2015-Apr-16 22:32 094 9 gusting 16 27.2
2015-Apr-16 22:17 047 6 gusting 15 27.2
2015-Apr-16 22:02 086 7 gusting 17 27.8
2015-Apr-16 21:47 088 8 gusting 15 27.8
2015-Apr-16 21:32 036 10 gusting 18 28.3
2015-Apr-16 21:17 066 11 gusting 17 28.3
2015-Apr-16 21:02 084 9 gusting 17 28.3
2015-Apr-16 20:47 094 7 gusting 16 28.3
2015-Apr-16 20:32 081 11 gusting 19 28.9
2015-Apr-16 20:17 071 9 gusting 13 28.9
2015-Apr-16 20:02 133 11 gusting 17 28.9
2015-Apr-16 19:47 060 12 gusting 18 28.9
2015-Apr-16 19:32 098 9 gusting 17 28.9
2015-Apr-16 19:17 091 8 gusting 16 28.9
2015-Apr-16 18:47 063 13 gusting 21 28.9
2015-Apr-16 18:32 074 13 gusting 18 29.4
2015-Apr-16 18:17 083 9 gusting 16 29.4
2015-Apr-16 18:02 090 10 gusting 17 28.9
2015-Apr-16 17:47 133 10 gusting 18 28.9
2015-Apr-16 17:32 070 13 gusting 19 28.9
2015-Apr-16 17:17 110 12 gusting 20 29.4
2015-Apr-16 17:02 117 12 gusting 17 29.4
2015-Apr-16 16:47 050 12 gusting 20 28.9
2015-Apr-16 16:32 072 10 gusting 18 28.9
2015-Apr-16 16:17 076 10 gusting 23 28.9
2015-Apr-16 16:02 104 12 gusting 19 28.9
2015-Apr-16 15:47 048 11 gusting 17 28.9
2015-Apr-16 15:32 100 11 gusting 16 29.4
2015-Apr-16 15:17 070 10 gusting 21 28.9
2015-Apr-16 15:02 104 8 gusting 18 28.3
2015-Apr-16 14:47 089 10 gusting 15 28.9
2015-Apr-16 14:32 101 9 gusting 17 28.3
2015-Apr-16 14:17 048 12 gusting 17 28.3
2015-Apr-16 14:02 101 9 gusting 16 28.3
2015-Apr-16 13:47 092 9 gusting 19 27.8
2015-Apr-16 13:32 070 9 gusting 17 27.8
2015-Apr-16 13:17 084 6 gusting 19 27.8
2015-Apr-16 13:02 094 8 gusting 19 27.8
2015-Apr-16 12:47 073 9 gusting 14 27.2
2015-Apr-16 12:32 082 7 gusting 15 27.2
2015-Apr-16 12:17 105 8 gusting 17 27.2
2015-Apr-16 12:02 091 7 gusting 14 26.7
2015-Apr-16 11:47 072 7 gusting 13 26.7
2015-Apr-16 11:32 088 6 gusting 13 26.1
2015-Apr-16 11:17 110 6 gusting 14 26.1
2015-Apr-16 11:02 049 6 gusting 13 26.1
2015-Apr-16 10:47 095 7 gusting 13 26.1
2015-Apr-16 10:32 066 5 gusting 12 26.1
2015-Apr-16 10:17 048 6 gusting 13 26.1
2015-Apr-16 10:02 084 5 gusting 16 26.1
2015-Apr-16 09:47 120 9 gusting 14 26.1
2015-Apr-16 09:31 072 6 gusting 13 26.1
2015-Apr-16 09:16 092 6 gusting 12 26.1
2015-Apr-16 09:01 066 6 gusting 10 26.1
2015-Apr-16 08:46 105 7 gusting 14 26.1
2015-Apr-16 08:31 095 7 gusting 13 26.1
2015-Apr-16 08:16 108 6 gusting 13 26.1
2015-Apr-16 08:01 112 6 gusting 10 26.1
2015-Apr-16 07:46 104 7 gusting 13 26.1
2015-Apr-16 07:31 079 7 gusting 13 26.1
2015-Apr-16 07:16 056 9 gusting 15 26.1
2015-Apr-16 07:01 095 6 gusting 12 26.1